Location: Newark
(16.3678°N, 77.8722°E)
Time: 10:03:44
(UTC+00:00)

Transit 4A - All Passes

Search period start: 15 December 2019 00:00
Search period end: 25 December 2019 00:00
Orbit: 870 x 974 km, 66.8° (Epoch: 14 December)

Date Brightness Start Highest point End Pass type
(mag) Time Alt. Az. Time Alt. Az. Time Alt. Az.
15 Dec - 08:35:39 10° SSE 08:40:18 22° ESE 08:44:51 10° ENE daylight
15 Dec - 10:20:37 10° SW 10:26:20 36° WNW 10:31:57 10° N daylight
15 Dec - 19:37:42 10° NNE 19:42:15 24° ENE 19:46:50 10° ESE night (unlit)
15 Dec - 21:23:28 10° NW 21:28:24 29° WSW 21:33:22 10° SSW night (unlit)
16 Dec - 08:43:50 10° S 08:49:31 36° ESE 08:55:06 10° NE daylight
16 Dec - 10:31:00 10° WSW 10:35:44 22° WNW 10:40:25 10° NNW daylight
16 Dec - 19:46:15 10° N 19:51:39 39° ENE 19:57:04 10° SE night (unlit)
16 Dec - 21:34:00 10° WNW 21:37:36 17° WSW 21:41:13 10° SW night (unlit)
17 Dec - 08:52:34 10° S 08:58:46 61° ESE 09:04:50 10° NNE daylight
17 Dec - 10:42:25 10° W 10:45:13 13° WNW 10:48:00 10° NW daylight
17 Dec - 19:55:13 10° NNW 20:00:58 68° ENE 20:06:47 10° SSE night (unlit)
18 Dec - 09:01:44 10° SSW 09:08:02 83° WNW 09:14:13 10° NNE daylight
18 Dec - 20:04:29 10° NNW 20:10:15 72° WSW 20:16:05 10° SSE night (unlit)
19 Dec - 07:27:58 10° SE 07:31:25 15° ESE 07:34:50 10° ENE daylight
19 Dec - 09:11:18 10° SW 09:17:21 50° WNW 09:23:18 10° N daylight
19 Dec - 18:29:34 10° NNE 18:33:13 17° ENE 18:36:52 10° ESE night (unlit)
19 Dec - 20:14:06 10° NW 20:19:30 41° WSW 20:24:58 10° S night (unlit)
20 Dec - 07:35:32 10° SSE 07:40:38 26° ESE 07:45:38 10° NE daylight
20 Dec - 09:21:19 10° SW 09:26:44 30° WNW 09:32:03 10° N daylight
20 Dec - 18:37:43 10° N 18:42:39 28° ENE 18:47:36 10° SE night (unlit)
20 Dec - 20:24:09 10° NW 20:28:42 24° WSW 20:33:19 10° SSW night (unlit)
21 Dec - 07:43:57 10° S 07:49:51 43° ESE 07:55:39 10° NE daylight
21 Dec - 09:31:58 10° WSW 09:36:09 19° WNW 09:40:18 10° NNW daylight
21 Dec - 18:46:26 10° N 18:52:01 48° ENE 18:57:38 10° SE night (unlit)
21 Dec - 20:35:09 10° WNW 20:37:54 14° WSW 20:40:41 10° SW night (unlit)
22 Dec - 07:52:50 10° SSW 07:59:07 73° ESE 08:05:15 10° NNE daylight
22 Dec - 09:44:32 10° WNW 09:45:40 10° WNW 09:46:48 10° NW daylight
22 Dec - 18:55:31 10° NNW 19:01:19 82° ENE 19:07:11 10° SSE night (unlit)
23 Dec - 06:22:23 10° ESE 06:22:33 10° ESE 06:22:42 10° ESE daylight
23 Dec - 08:02:09 10° SSW 08:08:24 69° WNW 08:14:31 10° NNE daylight
23 Dec - 17:22:07 10° NE 17:24:08 12° ENE 17:26:09 10° E night (unlit)
23 Dec - 19:04:54 10° NNW 19:10:35 59° WSW 19:16:20 10° S night (unlit)
24 Dec - 06:27:34 10° SSE 06:31:44 19° ESE 06:35:51 10° ENE daylight
24 Dec - 08:11:53 10° SW 08:17:44 42° WNW 08:23:29 10° N daylight
24 Dec - 17:29:24 10° NNE 17:33:37 21° ENE 17:37:51 10° ESE night (unlit)
24 Dec - 19:14:39 10° NW 19:19:49 34° WSW 19:25:03 10° S night (unlit)
